Location: Wanzleben
(52.0609°N, 11.4408°E)
Time: 16:20:14
(UTC+00:00)

Envisat - Pass Details

Date: 27 November 2020
Orbit: 764 x 766 km, 98.1° (Epoch: 20 January)

Event Time Altitude Azimuth Distance (km) Brightness Sun altitude
Rises 17:25:33 0° 206° (SSW) 3,223 6.7 -20.2°
Reaches altitude 10° 17:28:25 10° 223° (SW) 2,303 6.2 -20.6°
Maximum altitude 17:32:10 21° 271° (W) 1,691 5.7 -21.2°
Drops below altitude 10° 17:35:58 10° 319° (NW) 2,316 5.9 -21.8°
Sets 17:38:52 0° 336° (NNW) 3,248 6.5 -22.2°
